CAPE
944 1356 1615 1754 1664 1437 1250 1310 1321 1196 1076 980 688 364 187 183 86 4 0 0 0 0 0 0 0 0 0 0 0 0 0 0
666 932 1412 1458 1246 970 978 1035 946 828 750 479 185 91 99 61 0 0 0 0 0 0 0 0 0 0 0 0 0 0 0 0
646 769 881 846 723 852 877 811 602 496 363 134 0 0 0 0 0 0 0 0 0 0 0 0 0 0 0 0 0 0 0 0
660 612 537 445 516 706 551 539 248 43 2 0 0 0 0 0 0 0 0 0 0 0 0 0 0 0 0 0 0 0 0 0
680 662 455 438 486 424 285 149 1 0 0 0 0 0 0 0 0 0 0 0 0 0 0 0 0 0 0 0 0 0 0 0
611 665 486 431 342 268 226 19 0 0 0 0 0 0 0 0 0 0 0 0 0 0 0 0 0 0 0 0 0 0 0 0
619 659 586 493 321 224 16 0 0 0 0 0 0 0 0 0 0 0 0 0 0 0 0 0 0 0 0 0 0 0 0 0
927 767 587 487 332 197 8 0 0 0 0 0 0 0 0 0 0 0 0 0 0 0 0 0 0 0 0 0 0 0 0 0
1152 911 668 378 255 112 15 0 0 0 0 0 0 0 0 0 0 0 0 0 0 0 0 0 0 0 0 0 0 0 0 0
1122 1000 616 322 264 45 1 0 0 0 0 0 0 0 0 0 0 0 0 0 0 0 0 0 0 0 0 0 0 0 0 0
1153 933 625 262 240 43 0 0 0 0 0 0 0 0 0 0 0 0 0 0 0 0 0 0 0 0 0 0 0 0 0 0
1207 968 714 323 243 41 0 0 0 0 0 0 0 0 0 0 0 0 0 0 0 0 0 0 0 0 0 0 0 0 0 0
1156 1057 808 419 324 49 1 0 0 0 0 0 0 0 0 0 0 0 0 0 0 0 0 0 0 0 0 0 0 0 0 0
1071 1161 883 428 338 134 30 0 0 0 0 0 0 0 0 0 0 0 0 0 0 0 0 0 0 0 0 0 0 0 0 0
954 1082 918 646 471 198 83 1 0 0 0 0 0 0 0 0 0 0 0 0 0 0 0 0 0 0 0 0 0 0 0 0
700 985 801 728 544 270 154 23 0 0 0 0 0 0 0 0 0 0 0 0 0 0 0 0 0 0 0 0 0 0 0 0
657 862 808 639 532 391 266 156 6 0 0 0 0 0 0 0 0 0 0 0 0 0 0 0 0 0 0 0 0 0 0 0
782 857 875 649 491 388 303 204 4 0 0 0 0 0 0 0 0 0 0 0 0 0 0 0 0 0 0 0 0 0 0 0
798 793 870 699 554 359 243 101 2 0 0 0 0 0 0 0 0 0 0 0 0 0 0 0 0 0 0 0 0 0 0 0
753 762 788 609 430 399 216 28 0 0 0 0 0 0 0 0 0 0 0 0 0 0 0 0 0 0 0 0 0 0 0 0
CIN
-314 -222 -169 -138 -127 -133 -111 -102 -144 -158 -175 -186 -220 -324 -387 -371 -401 -288 -0 -0 -0 -0 -0 -0 -0 -0 -0 -0 -0 -0 -0 -0
-347 -267 -185 -150 -178 -204 -136 -81 -145 -194 -221 -298 -369 -397 -395 -426 -0 -0 -0 -0 -0 -0 -0 -0 -0 -0 -0 -0 -0 -0 -0 -0
-339 -276 -248 -234 -230 -173 -133 -99 -132 -190 -268 -381 -0 -0 -0 -0 -0 -0 -0 -0 -0 -0 -0 -0 -0 -0 -0 -0 -0 -0 -0 -0
-338 -308 -306 -303 -253 -178 -181 -153 -234 -386 -61 -0 -0 -0 -0 -0 -0 -0 -0 -0 -0 -0 -0 -0 -0 -0 -0 -0 -0 -0 -0 -0
-335 -312 -330 -307 -261 -245 -248 -311 -58 -0 -0 -0 -0 -0 -0 -0 -0 -0 -0 -0 -0 -0 -0 -0 -0 -0 -0 -0 -0 -0 -0 -0
-326 -308 -323 -311 -309 -297 -269 -431 -0 -0 -0 -0 -0 -0 -0 -0 -0 -0 -0 -0 -0 -0 -0 -0 -0 -0 -0 -0 -0 -0 -0 -0
-339 -304 -319 -306 -328 -335 -445 -0 -0 -0 -0 -0 -0 -0 -0 -0 -0 -0 -0 -0 -0 -0 -0 -0 -0 -0 -0 -0 -0 -0 -0 -0
-292 -302 -303 -317 -358 -377 -180 -0 -0 -0 -0 -0 -0 -0 -0 -0 -0 -0 -0 -0 -0 -0 -0 -0 -0 -0 -0 -0 -0 -0 -0 -0
-282 -293 -303 -347 -372 -437 -480 -0 -0 -0 -0 -0 -0 -0 -0 -0 -0 -0 -0 -0 -0 -0 -0 -0 -0 -0 -0 -0 -0 -0 -0 -0
-298 -276 -307 -371 -362 -511 -169 -0 -0 -0 -0 -0 -0 -0 -0 -0 -0 -0 -0 -0 -0 -0 -0 -0 -0 -0 -0 -0 -0 -0 -0 -0
-261 -285 -331 -422 -373 -494 -0 -0 -0 -0 -0 -0 -0 -0 -0 -0 -0 -0 -0 -0 -0 -0 -0 -0 -0 -0 -0 -0 -0 -0 -0 -0
-341 -349 -359 -409 -327 -453 -0 -0 -0 -0 -0 -0 -0 -0 -0 -0 -0 -0 -0 -0 -0 -0 -0 -0 -0 -0 -0 -0 -0 -0 -0 -0
-365 -316 -358 -366 -334 -474 -0 -0 -0 -0 -0 -0 -0 -0 -0 -0 -0 -0 -0 -0 -0 -0 -0 -0 -0 -0 -0 -0 -0 -0 -0 -0
-424 -400 -396 -465 -399 -493 -472 -16 -0 -0 -0 -0 -0 -0 -0 -0 -0 -0 -0 -0 -0 -0 -0 -0 -0 -0 -0 -0 -0 -0 -0 -0
-454 -493 -480 -508 -461 -406 -334 -47 -0 -0 -0 -0 -0 -0 -0 -0 -0 -0 -0 -0 -0 -0 -0 -0 -0 -0 -0 -0 -0 -0 -0 -0
-525 -488 -467 -492 -461 -473 -452 -497 -0 -0 -0 -0 -0 -0 -0 -0 -0 -0 -0 -0 -0 -0 -0 -0 -0 -0 -0 -0 -0 -0 -0 -0
-503 -487 -459 -446 -477 -521 -525 -452 -425 -0 -0 -0 -0 -0 -0 -0 -0 -0 -0 -0 -0 -0 -0 -0 -0 -0 -0 -0 -0 -0 -0 -0
-490 -470 -462 -466 -473 -495 -523 -517 -497 -0 -0 -0 -0 -0 -0 -0 -0 -0 -0 -0 -0 -0 -0 -0 -0 -0 -0 -0 -0 -0 -0 -0
-451 -422 -440 -464 -451 -471 -475 -542 -554 -0 -0 -0 -0 -0 -0 -0 -0 -0 -0 -0 -0 -0 -0 -0 -0 -0 -0 -0 -0 -0 -0 -0
-539 -462 -418 -448 -512 -502 -497 -554 -0 -0 -0 -0 -0 -0 -0 -0 -0 -0 -0 -0 -0 -0 -0 -0 -0 -0 -0 -0 -0 -0 -0 -0
Wind_Speed
11 12 13 13 16 18 17 20 22 22 22 22 20 19 19 19 19 18 17 16 16 14 13 13 14 16 18 20 19 18 10 7
11 11 13 11 12 17 17 17 19 21 21 21 20 18 18 19 19 18 17 17 16 15 13 13 15 15 20 19 18 17 10 8
13 12 11 10 9 12 16 18 17 18 18 20 18 9 11 14 14 18 17 16 15 14 14 12 15 17 20 18 15 6 8 6
15 14 12 10 8 11 11 12 10 8 7 10 8 8 7 9 13 15 15 14 14 12 11 12 12 7 9 14 6 7 7 5
16 17 15 15 11 9 6 6 6 6 10 7 9 7 7 6 6 7 5 11 4 6 5 4 7 7 7 7 7 7 5 4
16 18 16 16 10 10 9 8 8 7 9 11 10 6 5 7 5 6 5 4 6 5 4 6 6 8 11 9 8 7 5 3
20 19 19 16 14 11 10 9 9 9 9 10 11 9 8 7 6 6 4 4 4 5 5 5 6 11 10 11 8 8 8 4
20 22 20 18 16 15 11 8 8 9 9 10 12 9 8 8 8 7 5 4 4 4 4 5 6 10 10 10 10 8 8 7
23 23 21 19 18 15 12 10 9 9 9 13 14 12 10 10 8 8 7 5 6 4 4 5 7 8 11 9 8 8 7 8
24 20 21 20 19 14 12 11 10 10 10 10 15 14 13 10 9 8 8 7 7 6 7 6 7 8 8 7 7 7 7 6
24 23 24 22 21 15 14 14 11 10 10 10 15 15 14 11 9 8 9 8 7 8 4 10 9 8 8 7 6 7 7 6
26 24 25 24 16 14 12 12 11 10 11 12 16 14 17 13 10 9 9 7 8 8 9 5 9 10 10 7 5 5 5 5
25 25 24 17 15 14 14 15 14 13 13 17 18 15 16 14 9 11 12 12 11 10 9 12 4 9 9 6 5 4 5 6
25 28 25 22 17 17 14 16 15 12 11 14 17 17 17 16 14 13 14 11 12 13 13 9 4 12 9 6 4 1 3 2
27 29 28 26 25 15 11 10 10 11 12 13 15 19 18 19 16 14 14 12 12 15 16 17 12 9 17 7 5 5 5 1
29 28 29 27 26 21 24 20 17 15 17 15 17 20 19 18 16 16 15 11 14 15 13 13 13 15 12 2 3 7 6 4
28 29 28 28 27 26 21 21 16 11 12 16 16 17 19 18 17 17 16 12 14 16 15 15 13 14 14 4 3 2 4 6
25 27 30 29 28 28 27 27 22 16 17 15 15 14 15 18 18 17 16 14 14 13 14 16 14 13 12 5 6 5 5 5
21 24 28 28 28 26 26 24 23 22 19 15 18 14 13 18 21 17 14 15 14 13 13 12 14 13 14 8 5 3 5 3
25 26 26 26 27 26 22 22 14 14 16 13 14 15 15 16 18 17 16 16 13 13 11 10 12 12 13 8 5 3 3 6
Wind_Direction
154 160 159 149 147 148 154 153 147 145 143 140 137 136 140 139 139 138 141 140 137 134 127 121 108 94 106 115 113 111 105 100
157 163 162 162 158 151 155 155 150 147 143 138 136 139 143 141 140 141 148 146 144 141 136 128 109 98 113 115 112 106 97 93
158 164 163 158 157 160 155 154 152 147 143 139 134 139 140 140 142 146 154 151 151 148 146 131 111 106 112 111 106 103 102 97
163 162 162 155 160 162 156 157 151 146 143 142 131 126 135 134 142 147 150 153 152 152 142 117 106 106 108 107 103 102 98 99
173 164 164 167 169 160 162 156 152 150 146 148 125 134 138 134 140 148 145 156 150 143 124 99 108 116 113 108 100 91 92 97
174 170 164 172 169 172 171 169 164 161 160 145 141 141 140 146 145 146 149 153 156 146 136 133 120 125 122 113 106 106 95 80
182 174 174 172 172 173 173 175 175 167 160 159 150 156 158 153 152 158 154 150 160 153 151 137 124 131 123 120 111 106 99 82
180 182 181 176 176 177 176 172 176 166 168 163 155 159 164 164 159 158 156 163 166 151 149 131 124 131 124 123 121 111 104 100
185 182 181 181 179 177 180 175 176 175 174 170 158 164 170 167 166 169 172 166 157 144 130 104 112 124 124 124 121 113 107 100
187 182 182 181 184 180 183 179 180 179 178 175 164 166 171 170 174 177 171 162 167 159 154 135 124 126 126 123 116 114 112 100
190 189 185 185 183 177 181 180 182 181 176 178 175 167 174 175 179 180 170 168 171 164 157 144 133 128 124 116 118 124 125 115
187 189 187 186 183 176 178 178 184 182 184 183 182 174 175 177 177 168 171 173 169 167 150 128 139 135 127 109 116 128 123 134
189 188 190 179 181 180 179 185 185 188 187 185 180 182 177 179 176 166 174 175 175 163 146 139 121 131 110 82 41 58 131 145
186 192 186 186 185 190 190 188 189 186 177 184 182 178 179 179 175 181 179 170 167 167 156 150 125 166 146 115 139 67 35 137
189 190 188 187 190 183 187 181 182 184 184 184 186 182 182 182 177 175 175 172 172 172 168 172 165 178 167 136 148 187 130 114
191 188 188 189 186 181 184 183 182 189 189 184 183 183 180 181 177 174 176 174 178 180 177 177 168 179 185 154 122 141 162 144
191 190 190 187 188 188 186 190 194 185 184 181 188 183 179 180 175 177 180 181 182 178 180 182 182 182 189 138 116 87 102 134
190 186 192 189 189 189 190 191 186 180 180 179 184 184 179 176 179 181 181 181 183 184 183 186 186 192 194 163 171 165 170 144
191 193 191 190 191 192 191 190 189 187 179 177 177 181 190 186 181 181 180 182 183 182 182 184 189 192 194 184 171 167 132 124
185 190 192 189 189 190 189 187 185 185 184 177 183 186 189 182 182 178 174 177 178 183 184 185 188 190 190 183 170 164 148 151